Location: Great Falls Observatory Park
(38.9954°N, 77.3130°W)
Time: 10:37:19
(UTC-04:00)

OTV 5 (USA 277) - Visible Passes

Search period start: 16 October 2019 00:00
Search period end: 26 October 2019 00:00
Orbit: 310 x 324 km, 54.5° (Epoch: 08 October)

Date Brightness Start Highest point End Pass type
(mag) Time Alt. Az. Time Alt. Az. Time Alt. Az.
16 Oct ? 06:12:41 10° NNE 06:13:22 11° NNE 06:14:04 10° NE visible
17 Oct ? 06:26:02 10° NNW 06:28:12 20° NE 06:30:22 10° E visible
18 Oct ? 06:40:11 10° NW 06:42:53 52° NE 06:45:33 10° ESE visible
19 Oct ? 05:23:15 14° NE 05:23:15 14° NE 05:24:33 10° ENE visible
19 Oct ? 06:54:47 10° WNW 06:57:25 43° SW 07:00:01 10° SSE visible
20 Oct ? 05:37:54 30° NE 05:37:54 30° NE 05:40:10 10° ESE visible
21 Oct ? 05:52:40 61° SE 05:52:40 61° SE 05:55:00 10° SE visible
22 Oct ? 06:07:36 20° SSW 06:07:36 20° SSW 06:09:01 10° S visible
